Little Rock AFB, AR

7:48 PM CDT on September 19, 2017 (GMT -0500)
Little Rock Air Force Base

Weather History for KLRF - November, 2012

Change the Weather History Date:

Friday, November 2, 2012

  Actual Average Record
Temperature  
Mean Temperature 60 °F -  
Max Temperature 77 °F 66 °F 84 °F (2003)
Min Temperature 42 °F 45 °F 28 °F (1991)
Degree Days  
Heating Degree Days 6    
Growing Degree Days 10 (Base 50)    
Moisture  
Dew Point 50 °F    
Average Humidity 78    
Maximum Humidity 96    
Minimum Humidity 47    
Precipitation  
Precipitation 0.00 in - - ()
Sea Level Pressure  
Sea Level Pressure 29.97 in    
Wind  
Wind Speed 1 mph (East)    
Max Wind Speed 7 mph    
Max Gust Speed -    
Visibility 10 miles    
Events      
Averages and records for this station are not official NWS values.
T = Trace of Precipitation, MM = Missing Value Source: NWS Daily Summary

Daily Weather History Graph

Daily Weather History Graph

Search for Another Location

Airport or City:

Trip Planner

Search our weather history database for the weather conditions in past years. The results will help you decide how hot, cold, wet, or windy it might be!

Date:

Astronomy

Nov. 02, 2012 Rise Set
Actual Time 7:30 AM CDT 6:12 PM CDT
Civil Twilight 7:04 AM CDT 6:39 PM CDT
Nautical Twilight 6:34 AM CDT 7:09 PM CDT
Astronomical Twilight 6:05 AM CDT 7:38 PM CDT
Moon 9:05 PM CDT (11/2) 10:46 AM CDT (11/2)
Length of Visible Light 11h 34m
Length of Day
10h 42m
Waning Gibbous, 87% of the Moon is Illuminated
Nov 2
Waning Gibbous
Nov 6
Last Quarter
Nov 13
New
Nov 20
First Quarter
Nov 28
Full

Hourly Weather History & Observations

Time (CDT) Temp. Dew Point Humidity Pressure Visibility Wind Dir Wind Speed Gust Speed Precip Events Conditions
12:55 AM 46.8 °F 44.2 °F 91% 29.96 in 10.0 mi Calm Calm - N/A   Clear
1:55 AM 46.9 °F 43.9 °F 89% 29.96 in 10.0 mi Calm Calm - N/A   Clear
2:55 AM 45.7 °F 43.0 °F 90% 29.96 in 10.0 mi Calm Calm - N/A   Clear
3:55 AM 45.3 °F 43.3 °F 93% 29.95 in 10.0 mi Calm Calm - N/A   Clear
4:55 AM 43.5 °F 41.9 °F 94% 29.95 in 10.0 mi Calm Calm - N/A   Clear
5:55 AM 44.1 °F 42.3 °F 93% 29.96 in 10.0 mi Calm Calm - N/A   Clear
6:55 AM 42.6 °F 41.2 °F 95% 29.96 in 10.0 mi Calm Calm - N/A   Clear
7:55 AM 43.3 °F 41.2 °F 92% 29.98 in 10.0 mi Calm Calm - N/A   Clear
8:55 AM 48.4 °F 45.1 °F 89% 30.00 in 10.0 mi Calm Calm - N/A   Clear
9:55 AM 57.4 °F 51.4 °F 81% 30.01 in 10.0 mi Calm Calm - N/A   Clear
10:55 AM 64.4 °F 51.6 °F 63% 30.01 in 10.0 mi East 5.8 mph - N/A   Clear
11:55 AM 69.3 °F 52.0 °F 54% 30.01 in 10.0 mi ESE 4.6 mph - N/A   Clear
12:55 PM 72.1 °F 53.4 °F 52% 29.99 in 10.0 mi Calm Calm - N/A   Clear
1:55 PM 74.8 °F 54.7 °F 49% 29.98 in 10.0 mi East 5.8 mph - N/A   Clear
2:55 PM 76.8 °F 55.2 °F 47% 29.96 in 10.0 mi SE 6.9 mph - N/A   Clear
3:55 PM 77.2 °F 55.8 °F 47% 29.95 in 10.0 mi East 6.9 mph - N/A   Clear
4:55 PM 75.6 °F 56.8 °F 52% 29.95 in 10.0 mi East 3.5 mph - N/A   Clear
5:55 PM 72.9 °F 58.1 °F 60% 29.95 in 10.0 mi East 3.5 mph - N/A   Clear
6:55 PM 64.2 °F 57.4 °F 78% 29.96 in 9.0 mi East 3.5 mph - N/A   Clear
7:55 PM 60.1 °F 55.8 °F 86% 29.96 in 10.0 mi Calm Calm - N/A   Clear
8:55 PM 57.6 °F 54.9 °F 91% 29.96 in 10.0 mi Calm Calm - N/A   Clear
9:55 PM 55.9 °F 52.7 °F 89% 29.97 in 10.0 mi Calm Calm - N/A   Clear
10:55 PM 54.9 °F 52.3 °F 91% 29.97 in 10.0 mi Calm Calm - N/A   Clear
11:55 PM 53.4 °F 52.3 °F 96% 29.97 in 10.0 mi Calm Calm - N/A   Clear